FW8620 Weather Reports


time (UTC)temp
C
wind
direction
speed
KPH
gust
KPH
rain 1hr
cm
rain 24hr
cm
rain mn
cm
humidity
%
barometer
mb
20260508231931 23 277 6.4 14.5 0.00 0.00 0.00 43 1018.6
20260508231428 23 274 6.4 12.9 0.00 0.00 0.00 43 1018.9
20260508230925 23 286 1.6 16.1 0.00 0.00 0.00 43 1018.8
20260508230421 23 169 8.0 20.9 0.00 0.00 0.00 43 1018.9
20260508225919 23 320 3.2 14.5 0.00 0.00 0.00 43 1019.0
20260508225415 23 319 14.5 16.1 0.00 0.00 0.00 44 1018.9
20260508224913 22 295 9.7 20.9 0.00 0.00 0.00 45 1019.0
20260508224410 23 290 8.0 9.7 0.00 0.00 0.00 45 1019.0
20260508223908 23 295 12.9 16.1 0.00 0.00 0.00 46 1019.1
20260508223405 22 325 6.4 16.1 0.00 0.00 0.00 48 1019.0
20260508222902 23 0 6.4 11.3 0.00 0.00 0.00 47 1019.2
20260508222359 22 298 8.0 20.9 0.00 0.00 0.00 47 1019.3
20260508221856 23 313 11.3 22.5 0.00 0.00 0.00 47 1019.2
20260508221351 23 292 11.3 12.9 0.00 0.00 0.00 46 1019.4
20260508220848 23 176 3.2 9.7 0.00 0.00 0.00 48 1019.4
20260508220344 22 258 6.4 14.5 0.00 0.00 0.00 48 1019.5
20260508215841 23 296 6.4 16.1 0.00 0.00 0.00 48 1019.3
20260508215338 22 313 9.7 17.7 0.00 0.00 0.00 50 1019.4
20260508214835 23 307 9.7 20.9 0.00 0.00 0.00 50 1019.2
20260508214332 22 311 12.9 20.9 0.00 0.00 0.00 52 1019.3
20260508213828 22 331 6.4 22.5 0.00 0.00 0.00 53 1019.7
20260508213325 22 320 4.8 12.9 0.00 0.00 0.00 53 1019.7
20260508212821 22 11 6.4 16.1 0.00 0.00 0.00 52 1019.5
20260508212318 22 305 11.3 14.5 0.00 0.00 0.00 53 1019.9
20260508211814 23 287 11.3 16.1 0.00 0.00 0.00 52 1019.7
20260508211309 22 318 12.9 17.7 0.00 0.00 0.00 52 1019.5
20260508210808 22 313 3.2 16.1 0.00 0.00 0.00 51 1019.9
20260508210304 22 291 9.7 14.5 0.00 0.00 0.00 52 1019.9
20260508205801 22 279 11.3 17.7 0.00 0.00 0.00 54 1020.2
20260508205257 23 244 4.8 11.3 0.00 0.00 0.00 51 1019.9
20260508204753 22 262 8.0 12.9 0.00 0.00 0.00 53 1020.0
20260508204250 22 283 6.4 12.9 0.00 0.00 0.00 53 1020.1
20260508203746 22 227 11.3 16.1 0.00 0.00 0.00 52 1020.0
20260508203243 22 293 8.0 17.7 0.00 0.00 0.00 55 1020.0
20260508202738 23 281 8.0 12.9 0.00 0.00 0.00 53 1020.4
20260508202236 22 217 6.4 22.5 0.00 0.00 0.00 54 1020.3
20260508201733 22 319 6.4 11.3 0.00 0.00 0.00 54 1019.9
20260508201229 22 343 11.3 16.1 0.00 0.00 0.00 55 1020.2
20260508200726 22 285 9.7 20.9 0.00 0.00 0.00 54 1019.8
20260508200222 22 322 8.0 17.7 0.00 0.00 0.00 53 1020.0
20260508195719 22 311 11.3 12.9 0.00 0.00 0.00 53 1020.2
20260508195215 22 331 12.9 14.5 0.00 0.00 0.00 52 1019.9
20260508194712 21 315 19.3 25.7 0.00 0.00 0.00 53 1020.0
20260508194209 22 316 8.0 17.7 0.00 0.00 0.00 52 1020.0
20260508193706 22 324 1.6 14.5 0.00 0.00 0.00 51 1020.2
20260508193203 22 350 6.4 14.5 0.00 0.00 0.00 50 1020.0
20260508192659 22 328 11.3 16.1 0.00 0.00 0.00 49 1020.1
20260508192156 22 303 8.0 12.9 0.00 0.00 0.00 51 1020.2
20260508191653 22 269 9.7 14.5 0.00 0.00 0.00 53 1020.1
20260508191150 22 229 4.8 14.5 0.00 0.00 0.00 55 1020.2
20260508190648 22 322 12.9 16.1 0.00 0.00 0.00 53 1020.6
20260508190144 22 225 4.8 9.7 0.00 0.00 0.00 53 1020.6
20260508185641 22 250 6.4 12.9 0.00 0.00 0.00 53 1020.4
20260508185138 22 262 6.4 9.7 0.00 0.00 0.00 55 1020.3
20260508184635 22 280 6.4 11.3 0.00 0.00 0.00 57 1020.6
20260508184132 22 228 1.6 12.9 0.00 0.00 0.00 55 1020.6
20260508183629 22 291 3.2 8.0 0.00 0.00 0.00 55 1020.4
20260508183125 22 316 8.0 12.9 0.00 0.00 0.00 53 1020.4
20260508182621 22 31 8.0 20.9 0.00 0.00 0.00 53 1020.4
20260508182118 22 287 8.0 9.7 0.00 0.00 0.00 51 1020.7
20260508181613 22 249 8.0 11.3 0.00 0.00 0.00 46 1020.8
20260508181111 21 353 8.0 14.5 0.00 0.00 0.00 56 1020.8
20260508180608 21 323 8.0 14.5 0.00 0.00 0.00 53 1020.9
20260508180104 21 322 9.7 11.3 0.00 0.00 0.00 56 1020.4
20260508175601 21 1 6.4 22.5 0.00 0.00 0.00 62 1020.8
20260508175058 20 351 12.9 16.1 0.00 0.00 0.00 61 1020.8
20260508174555 21 325 11.3 16.1 0.00 0.00 0.00 62 1020.9
20260508174052 20 316 16.1 17.7 0.00 0.00 0.00 62 1020.9
20260508173549 20 23 9.7 14.5 0.00 0.00 0.00 59 1020.8
20260508173045 21 114 3.2 12.9 0.00 0.00 0.00 63 1020.8
20260508172542 20 356 4.8 14.5 0.00 0.00 0.00 63 1021.0
20260508172039 20 303 6.4 11.3 0.00 0.00 0.00 62 1020.9
20260508171535 20 338 4.8 9.7 0.00 0.00 0.00 59 1020.8
20260508171032 20 272 3.2 9.7 0.00 0.00 0.00 60 1020.8
20260508170529 20 17 4.8 12.9 0.00 0.00 0.00 60 1020.7
20260508170026 20 34 3.2 8.0 0.00 0.00 0.00 60 1021.0
20260508165523 20 336 4.8 8.0 0.00 0.00 0.00 61 1020.9
20260508165020 20 17 4.8 9.7 0.00 0.00 0.00 60 1020.9
20260508164517 20 355 3.2 11.3 0.00 0.00 0.00 58 1020.9
20260508164014 20 285 6.4 9.7 0.00 0.00 0.00 59 1021.1
20260508163511 20 9 6.4 11.3 0.00 0.00 0.00 61 1021.1
20260508163007 20 342 6.4 11.3 0.00 0.00 0.00 60 1021.0
20260508162504 20 5 1.6 4.8 0.00 0.00 0.00 65 1021.2
20260508162001 19 314 3.2 4.8 0.00 0.00 0.00 61 1021.1
20260508161458 20 218 8.0 12.9 0.00 0.00 0.00 65 1021.0
20260508160955 19 210 0.0 3.2 0.00 0.00 0.00 63 1021.2
20260508160454 18 242 8.0 12.9 0.00 0.00 0.00 69 1021.1
20260508155950 18 260 6.4 12.9 0.00 0.00 0.00 67 1021.0
20260508155447 18 319 4.8 8.0 0.00 0.00 0.00 67 1021.0
20260508154944 18 240 4.8 9.7 0.00 0.00 0.00 69 1021.2
20260508154442 18 302 4.8 8.0 0.00 0.00 0.00 69 1021.0
20260508153938 17 235 3.2 3.2 0.00 0.00 0.00 69 1021.1
20260508153435 18 300 6.4 9.7 0.00 0.00 0.00 70 1021.1
20260508152931 17 271 6.4 9.7 0.00 0.00 0.00 72 1021.2
20260508152428 17 237 8.0 12.9 0.00 0.00 0.00 72 1021.0
20260508151925 17 222 6.4 12.9 0.00 0.00 0.00 73 1021.1
20260508151422 17 196 8.0 16.1 0.00 0.00 0.00 74 1021.0
20260508150918 17 209 11.3 20.9 0.00 0.00 0.00 74 1021.1
20260508150415 17 259 9.7 16.1 0.00 0.00 0.00 74 1021.1
20260508145910 17 236 6.4 11.3 0.00 0.00 0.00 74 1021.1
20260508145407 17 236 4.8 12.9 0.00 0.00 0.00 74 1021.2
20260508144904 16 172 9.7 14.5 0.00 0.00 0.00 74 1021.2
20260508144402 16 246 11.3 12.9 0.00 0.00 0.00 74 1021.0
20260508143859 16 258 6.4 12.9 0.00 0.00 0.00 75 1021.1
20260508143356 16 240 12.9 16.1 0.00 0.00 0.00 76 1021.3
20260508142853 16 243 8.0 16.1 0.00 0.00 0.00 76 1021.2
20260508142350 16 246 4.8 12.9 0.00 0.00 0.00 76 1021.1
20260508141846 16 244 4.8 9.7 0.00 0.00 0.00 77 1021.0
20260508141343 15 215 6.4 12.9 0.00 0.00 0.00 77 1021.0
20260508140841 15 227 4.8 9.7 0.00 0.00 0.00 77 1021.1
20260508140338 15 219 6.4 9.7 0.00 0.00 0.00 77 1020.8
20260508135833 15 258 3.2 4.8 0.00 0.00 0.00 77 1020.8
20260508135330 15 334 0.0 3.2 0.00 0.00 0.00 78 1020.9
20260508134826 15 245 0.0 0.0 0.00 0.00 0.00 78 1020.9
20260508134323 15 290 1.6 3.2 0.00 0.00 0.00 79 1020.9
20260508133819 15 282 0.0 4.8 0.00 0.00 0.00 79 1020.8
20260508133317 14 314 0.0 3.2 0.00 0.00 0.00 80 1020.8
20260508132814 14 241 0.0 1.6 0.00 0.00 0.00 81 1020.7
20260508132312 13 299 0.0 1.6 0.00 0.00 0.00 81 1020.8
20260508131808 13 303 0.0 0.0 0.00 0.00 0.00 81 1020.8
20260508131304 13 319 0.0 3.2 0.00 0.00 0.00 81 1020.6
20260508130800 13 247 0.0 1.6 0.00 0.00 0.00 81 1020.6
20260508130258 13 233 0.0 0.0 0.00 0.00 0.00 81 1020.8
20260508125754 13 295 0.0 3.2 0.00 0.00 0.00 81 1020.8
20260508125250 13 319 4.8 4.8 0.00 0.00 0.00 81 1020.9
20260508124749 13 294 0.0 3.2 0.00 0.00 0.00 81 1020.4
20260508124245 13 250 3.2 3.2 0.00 0.00 0.00 81 1020.6
20260508123743 13 229 0.0 0.0 0.00 0.00 0.00 81 1020.3
20260508123241 13 241 3.2 3.2 0.00 0.00 0.00 80 1020.4
20260508122737 14 236 0.0 0.0 0.00 0.00 0.00 79 1020.3
20260508122234 14 276 1.6 4.8 0.00 0.00 0.00 79 1020.2
20260508121731 14 287 3.2 8.0 0.00 0.00 0.00 79 1020.6
20260508121230 14 299 0.0 0.0 0.00 0.00 0.00 79 1020.2
20260508120727 14 319 0.0 1.6 0.00 0.00 0.00 78 1020.4
20260508120225 14 283 4.8 8.0 0.00 0.00 0.00 79 1020.6
20260508115722 14 299 0.0 0.0 0.00 0.00 0.00 78 1020.4
20260508115220 14 236 3.2 3.2 0.00 0.00 0.00 78 1020.6
20260508114716 14 233 0.0 4.8 0.00 0.00 0.00 79 1020.4
20260508114213 14 277 1.6 3.2 0.00 0.00 0.00 79 1020.0
20260508113709 14 313 0.0 3.2 0.00 0.00 0.00 79 1020.1
20260508113208 14 293 3.2 4.8 0.00 0.00 0.00 79 1020.2
20260508112703 14 259 3.2 3.2 0.00 0.00 0.00 80 1020.3
20260508112201 14 287 0.0 1.6 0.00 0.00 0.00 80 1020.2
20260508111657 14 287 1.6 4.8 0.00 0.00 0.00 80 1020.1
20260508111155 14 331 3.2 3.2 0.00 0.00 0.00 79 1020.2
20260508110652 14 221 1.6 3.2 0.00 0.00 0.00 79 1020.0
20260508110149 14 293 3.2 4.8 0.00 0.00 0.00 79 1020.2
20260508105643 14 298 4.8 4.8 0.00 0.00 0.00 79 1020.1
20260508105141 14 260 0.0 0.0 0.00 0.00 0.00 78 1020.0
20260508104638 15 286 0.0 4.8 0.00 0.00 0.00 78 1020.2
20260508104135 15 273 3.2 8.0 0.00 0.00 0.00 78 1020.2
20260508103632 15 312 0.0 1.6 0.00 0.00 0.00 78 1020.1
20260508103129 15 312 0.0 1.6 0.00 0.00 0.00 78 1020.4
20260508102626 15 315 0.0 3.2 0.00 0.00 0.00 77 1020.3
20260508102124 15 278 1.6 4.8 0.00 0.00 0.00 77 1020.3
20260508101621 15 246 0.0 3.2 0.00 0.00 0.00 77 1020.7
20260508101118 15 288 3.2 3.2 0.00 0.00 0.00 77 1020.3
20260508100616 15 309 0.0 1.6 0.00 0.00 0.00 76 1020.2
20260508100114 15 253 1.6 1.6 0.00 0.00 0.00 76 1020.2
20260508095610 15 238 0.0 0.0 0.00 0.00 0.00 75 1020.6
20260508095107 15 294 0.0 0.0 0.00 0.00 0.00 75 1020.4
20260508094604 15 318 0.0 0.0 0.00 0.00 0.00 75 1020.3
20260508094101 15 320 0.0 0.0 0.00 0.00 0.00 74 1020.3
20260508093558 15 278 1.6 3.2 0.00 0.00 0.00 74 1020.7
20260508093056 15 286 0.0 0.0 0.00 0.00 0.00 74 1020.3
20260508092553 15 239 0.0 0.0 0.00 0.00 0.00 73 1020.4
20260508092052 15 256 0.0 0.0 0.00 0.00 0.00 73 1020.3
20260508091549 15 244 0.0 0.0 0.00 0.00 0.00 73 1020.6
20260508091045 15 289 0.0 0.0 0.00 0.00 0.00 73 1020.4
20260508090543 15 254 0.0 0.0 0.00 0.00 0.00 73 1020.3
20260508090040 15 295 0.0 0.0 0.00 0.00 0.00 73 1020.4
20260508085536 15 245 1.6 1.6 0.00 0.00 0.00 72 1020.3
20260508085033 15 280 0.0 0.0 0.00 0.00 0.00 71 1020.3
20260508084530 15 247 3.2 4.8 0.00 0.00 0.00 71 1020.6
20260508084028 15 286 0.0 0.0 0.00 0.00 0.00 71 1020.7
20260508083525 15 231 0.0 1.6 0.00 0.00 0.00 72 1020.7
20260508083021 15 276 0.0 0.0 0.00 0.00 0.00 71 1020.8
20260508082517 15 240 0.0 0.0 0.00 0.00 0.00 71 1020.6
20260508082015 15 261 0.0 0.0 0.00 0.00 0.00 72 1020.8
20260508081512 15 214 0.0 0.0 0.00 0.00 0.00 72 1020.8
20260508081008 15 329 0.0 0.0 0.00 0.00 0.00 72 1021.0
20260508080506 15 321 0.0 0.0 0.00 0.00 0.00 72 1021.0
20260508080003 15 323 0.0 0.0 0.00 0.00 0.00 70 1021.0
20260508075459 15 221 0.0 0.0 0.00 0.00 0.00 70 1020.9
20260508074957 16 287 0.0 1.6 0.00 0.00 0.00 68 1021.1
20260508074455 16 239 3.2 3.2 0.00 0.00 0.00 68 1021.0
20260508073951 16 352 0.0 3.2 0.00 0.00 0.00 68 1020.8
20260508073449 16 224 3.2 4.8 0.00 0.00 0.00 68 1020.9
20260508072946 16 249 0.0 0.0 0.00 0.00 0.00 68 1021.0
20260508072442 16 251 1.6 1.6 0.00 0.00 0.00 68 1020.9
20260508071939 16 305 1.6 8.0 0.00 0.00 0.00 67 1021.0
20260508071437 16 314 1.6 4.8 0.00 0.00 0.00 68 1020.9
20260508070935 16 244 1.6 4.8 0.00 0.00 0.00 69 1020.7
20260508070432 16 244 0.0 1.6 0.00 0.00 0.00 69 1020.7
20260508065930 16 275 0.0 1.6 0.00 0.00 0.00 68 1020.8
20260508065428 16 284 3.2 3.2 0.00 0.00 0.00 67 1021.0
20260508064926 16 247 1.6 1.6 0.00 0.00 0.00 67 1020.8
20260508064423 16 199 0.0 3.2 0.00 0.00 0.00 68 1020.9
20260508063920 16 179 0.0 0.0 0.00 0.00 0.00 68 1020.9
20260508063418 16 192 0.0 3.2 0.00 0.00 0.00 68 1021.0
20260508062915 16 234 1.6 3.2 0.00 0.00 0.00 67 1020.7
20260508062413 16 298 1.6 3.2 0.00 0.00 0.00 67 1020.8
20260508061909 16 194 0.0 0.0 0.00 0.00 0.00 67 1020.8
20260508061407 16 245 3.2 3.2 0.00 0.00 0.00 66 1020.7
20260508060903 17 275 0.0 4.8 0.00 0.00 0.00 65 1020.8
20260508060401 16 321 4.8 8.0 0.00 0.00 0.00 66 1020.8
20260508055901 16 273 0.0 3.2 0.00 0.00 0.00 66 1020.6
20260508055359 16 267 1.6 1.6 0.00 0.00 0.00 66 1020.9
20260508054855 16 306 0.0 1.6 0.00 0.00 0.00 66 1020.8
20260508054353 16 290 1.6 4.8 0.00 0.00 0.00 66 1020.7
20260508053849 17 300 4.8 8.0 0.00 0.00 0.00 65 1020.7
20260508053347 16 269 3.2 8.0 0.00 0.00 0.00 65 1020.8
20260508052844 16 286 1.6 4.8 0.00 0.00 0.00 66 1020.9
20260508052342 16 236 4.8 4.8 0.00 0.00 0.00 67 1020.9
20260508051837 16 257 1.6 3.2 0.00 0.00 0.00 66 1020.8
20260508051333 16 294 1.6 9.7 0.00 0.00 0.00 66 1021.0
20260508050829 16 285 4.8 4.8 0.00 0.00 0.00 66 1021.0
20260508050327 16 263 0.0 1.6 0.00 0.00 0.00 66 1020.8
20260508045822 17 231 3.2 8.0 0.00 0.00 0.00 65 1020.7
20260508045320 16 283 8.0 11.3 0.00 0.00 0.00 66 1020.9
20260508044818 16 292 1.6 3.2 0.00 0.00 0.00 66 1020.7
20260508044314 16 253 4.8 9.7 0.00 0.00 0.00 66 1020.8
20260508043810 16 248 0.0 4.8 0.00 0.00 0.00 66 1020.9
20260508043308 16 298 1.6 4.8 0.00 0.00 0.00 66 1021.1
20260508042804 17 239 3.2 3.2 0.00 0.00 0.00 66 1021.0
20260508042306 17 257 1.6 3.2 0.00 0.00 0.00 65 1020.8
20260508041758 17 245 3.2 8.0 0.00 0.00 0.00 65 1020.7
20260508041255 17 252 4.8 4.8 0.00 0.00 0.00 66 1020.6
20260508040751 17 235 3.2 4.8 0.00 0.00 0.00 66 1020.2
20260508040249 16 250 4.8 4.8 0.00 0.00 0.00 66 1020.6
20260508035746 17 231 4.8 4.8 0.00 0.00 0.00 66 1020.6
20260508035243 17 211 1.6 4.8 0.00 0.00 0.00 65 1020.4
20260508034739 17 248 3.2 4.8 0.00 0.00 0.00 66 1020.4
20260508034237 17 224 3.2 8.0 0.00 0.00 0.00 65 1020.4
20260508033734 17 239 4.8 8.0 0.00 0.00 0.00 65 1020.2
20260508033232 17 230 4.8 8.0 0.00 0.00 0.00 64 1020.2
20260508032730 17 228 1.6 3.2 0.00 0.00 0.00 65 1020.2
20260508032226 17 230 8.0 9.7 0.00 0.00 0.00 63 1019.9
20260508031723 17 277 3.2 3.2 0.00 0.00 0.00 63 1020.1
20260508031219 17 295 1.6 4.8 0.00 0.00 0.00 63 1020.0
20260508030716 18 242 4.8 4.8 0.00 0.00 0.00 62 1019.9
20260508030214 18 266 4.8 4.8 0.00 0.00 0.00 62 1019.7
20260508025710 18 234 4.8 8.0 0.00 0.00 0.00 62 1020.0
20260508025207 18 276 6.4 9.7 0.00 0.00 0.00 61 1019.9
20260508024703 18 228 6.4 8.0 0.00 0.00 0.00 61 1019.8
20260508024200 18 226 8.0 11.3 0.00 0.00 0.00 61 1019.8
20260508023656 18 268 0.0 0.0 0.00 0.00 0.00 60 1019.8
20260508023154 18 227 3.2 8.0 0.00 0.00 0.00 60 1019.9
20260508022649 18 271 1.6 4.8 0.00 0.00 0.00 59 1019.7
20260508022147 19 268 6.4 11.3 0.00 0.00 0.00 59 1019.8
20260508021643 19 237 4.8 12.9 0.00 0.00 0.00 59 1019.7
20260508021138 19 228 3.2 8.0 0.00 0.00 0.00 57 1019.7
20260508020636 20 238 11.3 12.9 0.00 0.00 0.00 57 1019.7
20260508020134 20 221 9.7 20.9 0.00 0.00 0.00 56 1019.8
20260508015631 20 238 8.0 16.1 0.00 0.00 0.00 55 1019.4
20260508015128 20 248 3.2 4.8 0.00 0.00 0.00 55 1019.3
20260508014624 21 287 3.2 4.8 0.00 0.00 0.00 54 1019.5
20260508014121 21 261 9.7 14.5 0.00 0.00 0.00 53 1019.5
20260508013617 21 237 8.0 12.9 0.00 0.00 0.00 52 1019.4
20260508013114 21 252 4.8 14.5 0.00 0.00 0.00 52 1019.1
20260508012611 21 213 4.8 9.7 0.00 0.00 0.00 51 1019.3
20260508012108 21 232 11.3 12.9 0.00 0.00 0.00 51 1019.4
20260508011607 22 304 11.3 12.9 0.00 0.00 0.00 51 1019.4
20260508011104 21 233 4.8 12.9 0.00 0.00 0.00 50 1019.4
20260508010600 22 243 4.8 11.3 0.00 0.00 0.00 49 1019.4
20260508010058 22 227 8.0 16.1 0.00 0.00 0.00 48 1019.3
20260508005554 21 223 11.3 17.7 0.00 0.00 0.00 48 1019.3
20260508005051 22 255 9.7 12.9 0.00 0.00 0.00 49 1019.1
20260508004547 22 304 11.3 16.1 0.00 0.00 0.00 48 1019.3
20260508004044 22 194 9.7 17.7 0.00 0.00 0.00 48 1019.2
20260508003540 22 225 9.7 16.1 0.00 0.00 0.00 48 1019.2
20260508003038 22 239 11.3 17.7 0.00 0.00 0.00 47 1019.3
20260508002534 22 269 6.4 11.3 0.00 0.00 0.00 47 1019.2
20260508002032 22 235 14.5 17.7 0.00 0.00 0.00 48 1019.3
20260508001527 22 244 9.7 11.3 0.00 0.00 0.00 49 1019.7
20260508001023 22 270 6.4 12.9 0.00 0.00 0.00 48 1019.5
20260508000519 22 239 11.3 16.1 0.00 0.00 0.00 47 1019.4
20260508000017 23 255 9.7 16.1 0.00 0.00 0.00 48 1019.3
20260507235514 23 256 8.0 14.5 0.00 0.00 0.00 45 1019.2
20260507235011 22 277 6.4 11.3 0.00 0.00 0.00 47 1019.2
20260507234507 22 287 17.7 24.1 0.00 0.00 0.00 47 1019.2
20260507234004 22 301 4.8 12.9 0.00 0.00 0.00 47 1019.1
20260507233500 22 320 12.9 17.7 0.00 0.00 0.00 46 1019.1
20260507233000 22 316 6.4 17.7 0.00 0.00 0.00 46 1019.3
20260507232455 22 309 12.9 16.1 0.00 0.00 0.00 47 1019.2
20260507231953 23 305 14.5 17.7 0.00 0.00 0.00 46 1019.2